SP5IZJ-2 Weather Reports


Display with metric or nautical units.
time (UTC)temp
F
wind
direction
speed
MPH
gust
MPH
rain 1hr
in
rain 24hr
in
rain mn
in
humidity
%
barometer
mb
20260906012451 56 45 7.0 13.0 0.00 0.00 0.00 86 1007.9
20260906011751 56 45 5.0 13.0 0.00 0.00 0.00 86 1007.8
20260906011051 55 23 6.0 11.0 0.00 0.00 0.00 87 1007.7
20260906010351 55 23 6.0 12.0 0.00 0.00 0.00 87 1007.7
20260906005626 55 23 7.0 13.0 0.00 0.00 0.00 87 1007.7
20260906004952 55 68 6.0 13.0 0.00 0.00 0.00 88 1007.7
20260906004252 55 23 7.0 11.0 0.00 0.00 0.00 88 1007.7
20260906003552 55 45 6.0 14.0 0.00 0.00 0.00 88 1007.8
20260906002852 55 45 8.0 15.0 0.00 0.00 0.00 88 1007.8
20260906001453 55 45 7.0 14.0 0.00 0.00 0.00 89 1007.9
20260906000708 54 23 9.0 14.0 0.00 0.00 0.00 89 1007.9
20260906000053 54 45 6.0 12.0 0.00 0.00 0.00 89 1007.9
20260905235308 54 23 9.0 14.0 0.00 0.00 0.00 89 1007.8
20260905234653 54 45 9.0 15.0 0.00 0.00 0.00 88 1007.7
20260905233953 54 45 7.0 16.0 0.00 0.00 0.00 88 1007.6
20260905233252 54 45 8.0 16.0 0.00 0.00 0.00 88 1007.6
20260905232554 54 359 0.0 0.0 0.00 0.00 0.00 88 1007.5
20260905231854 54 23 7.0 14.0 0.00 0.00 0.00 88 1007.6
20260905231154 54 23 9.0 16.0 0.00 0.00 0.00 88 1007.5
20260905230454 54 45 7.0 17.0 0.00 0.00 0.00 88 1007.6
20260905225054 54 45 6.0 13.0 0.00 0.00 0.00 87 1007.3
20260905224355 55 23 7.0 12.0 0.00 0.00 0.00 87 1007.4
20260905223610 55 45 7.0 13.0 0.00 0.00 0.00 87 1007.3
20260905222238 55 23 7.0 14.0 0.00 0.00 0.00 87 1007.4
20260905221556 55 23 6.0 16.0 0.00 0.00 0.00 87 1007.3
20260905220855 54 23 8.0 16.0 0.00 0.00 0.00 87 1007.3
20260905220151 55 23 7.0 12.0 0.00 0.00 0.00 86 1007.2
20260905215411 55 45 6.0 13.0 0.00 0.00 0.00 86 1007.2
20260905214056 55 45 8.0 17.0 0.00 0.00 0.00 85 1007.1
20260905213356 55 45 7.0 16.0 0.00 0.00 0.00 85 1007.0
20260905212657 55 45 6.0 13.0 0.00 0.00 0.00 85 1007.0
20260905211957 55 23 6.0 11.0 0.00 0.00 0.00 85 1007.1
20260905211257 56 23 7.0 13.0 0.00 0.00 0.00 84 1007.1
20260905210557 56 45 9.0 16.0 0.00 0.00 0.00 83 1006.9
20260905205857 56 45 8.0 16.0 0.00 0.00 0.00 82 1006.9
20260905205157 56 45 9.0 16.0 0.00 0.00 0.00 82 1006.8
20260905204458 56 45 8.0 14.0 0.00 0.00 0.00 82 1006.7
20260905203758 57 45 6.0 15.0 0.00 0.00 0.00 82 1006.6
20260905203058 57 45 6.0 13.0 0.00 0.00 0.00 82 1006.6
20260905202358 57 45 4.0 10.0 0.00 0.00 0.00 80 1006.7
20260905200945 57 90 1.0 7.0 0.00 0.00 0.00 78 1006.5
20260905200226 58 68 5.0 10.0 0.00 0.00 0.00 76 1006.4
20260905195534 58 90 4.0 9.0 0.00 0.00 0.00 75 1006.3
20260905194818 59 68 5.0 12.0 0.00 0.00 0.00 75 1006.3
20260905194159 59 68 6.0 13.0 0.00 0.00 0.00 75 1006.4
20260905193500 60 68 5.0 12.0 0.00 0.00 0.00 76 1006.4
20260905192800 60 68 6.0 13.0 0.00 0.00 0.00 75 1006.3
20260905192100 60 68 9.0 15.0 0.00 0.00 0.00 75 1006.3
20260905191400 59 45 10.0 18.0 0.00 0.00 0.00 76 1006.1
20260905190627 59 23 9.0 21.0 0.00 0.00 0.00 77 1006.0
20260905185215 58 23 9.0 15.0 0.00 0.00 0.00 81 1006.0
20260905184532 57 23 7.0 13.0 0.00 0.00 0.00 83 1006.2
20260905183844 57 23 8.0 14.0 0.00 0.00 0.00 84 1006.1
20260905183201 57 0 6.0 10.0 0.00 0.00 0.00 84 1006.2
20260905182416 57 0 5.0 9.0 0.00 0.02 0.00 83 1006.1
20260905181102 57 23 3.0 7.0 0.00 0.02 0.00 80 1006.5
20260905180402 58 23 2.0 6.0 0.00 0.02 0.00 78 1006.3
20260905174929 59 23 4.0 8.0 0.00 0.02 0.00 75 1006.1
20260905174302 59 23 4.0 7.0 0.00 0.02 0.00 75 1005.9
20260905173603 59 23 3.0 6.0 0.00 0.02 0.00 73 1006.0
20260905172902 60 45 2.0 7.0 0.00 0.02 0.00 72 1006.0
20260905172203 60 45 3.0 9.0 0.00 0.02 0.00 71 1005.9
20260905170722 61 45 5.0 11.0 0.00 0.02 0.00 69 1005.8
20260905165339 63 23 6.0 13.0 0.00 0.02 0.00 67 1005.7
20260905164631 64 23 5.0 11.0 0.00 0.02 0.00 66 1005.9
20260905163959 64 23 6.0 13.0 0.00 0.02 0.00 67 1005.9
20260905163219 62 45 10.0 15.0 0.00 0.02 0.00 69 1005.7
20260905162539 63 23 10.0 18.0 0.00 0.02 0.00 66 1005.5
20260905161904 62 23 7.0 12.0 0.00 0.02 0.00 66 1005.6
20260905161205 62 23 7.0 14.0 0.00 0.02 0.00 66 1005.6
20260905160505 62 45 6.0 14.0 0.00 0.02 0.00 66 1005.5
20260905155024 63 23 7.0 13.0 0.00 0.02 0.00 63 1005.6
20260905154324 64 23 8.0 23.0 0.00 0.02 0.00 62 1005.3
20260905153625 63 45 8.0 16.0 0.00 0.02 0.00 63 1005.4
20260905152921 62 45 9.0 17.0 0.00 0.02 0.00 64 1005.4
20260905152225 62 23 10.0 15.0 0.00 0.02 0.00 64 1005.2
20260905151606 62 23 11.0 20.0 0.00 0.02 0.00 63 1005.6
20260905150157 63 23 13.0 19.0 0.00 0.02 0.00 64 1005.6
20260905145426 64 45 13.0 21.0 0.00 0.02 0.00 63 1005.6
20260905144729 64 23 14.0 24.0 0.00 0.02 0.00 60 1005.6
20260905144030 65 23 14.0 23.0 0.00 0.02 0.00 59 1005.3
20260905143322 66 23 14.0 20.0 0.00 0.02 0.00 56 1005.1
20260905142634 67 45 14.0 25.0 0.00 0.02 0.00 55 1004.9
20260905141923 67 23 12.0 24.0 0.00 0.02 0.00 54 1004.7
20260905141251 68 45 16.0 24.0 0.00 0.02 0.00 52 1004.8
20260905135823 70 23 11.0 25.0 0.00 0.02 0.00 49 1004.6
20260905135123 72 23 13.0 25.0 0.00 0.02 0.00 47 1004.5
20260905134455 73 45 14.0 36.0 0.00 0.02 0.00 46 1004.2
20260905133747 73 23 13.0 36.0 0.00 0.02 0.00 46 1004.1
20260905133024 72 23 11.0 19.0 0.00 0.02 0.00 46 1004.2
20260905132328 73 45 13.0 19.0 0.00 0.02 0.00 47 1004.2
20260905131624 71 23 13.0 22.0 0.00 0.02 0.00 50 1004.3
20260905130952 71 23 12.0 22.0 0.00 0.02 0.00 50 1004.5
20260905130224 72 45 14.0 23.0 0.00 0.02 0.00 49 1004.3
20260905125552 71 45 9.0 16.0 0.00 0.02 0.00 52 1004.3
20260905124910 69 45 9.0 17.0 0.00 0.02 0.00 52 1004.4
20260905124518 70 45 11.0 21.0 0.00 0.02 0.00 52 1004.6
20260905124210 70 45 11.0 21.0 0.00 0.02 0.00 52 1004.6
20260905123425 72 45 13.0 20.0 0.00 0.02 0.00 49 1004.4
20260905122741 72 23 13.0 23.0 0.00 0.02 0.00 49 1004.6
20260905122101 71 45 12.0 19.0 0.00 0.02 0.00 51 1004.5
20260905121330 70 90 11.0 20.0 0.00 0.02 0.00 53 1004.6
20260905120627 69 68 10.0 19.0 0.00 0.02 0.00 53 1004.8
20260905115934 70 90 11.0 19.0 0.00 0.02 0.00 51 1004.7
20260905115246 70 45 9.0 17.0 0.00 0.02 0.00 52 1004.8
20260905113834 69 45 10.0 19.0 0.00 0.02 0.00 54 1004.7
20260905113146 69 45 11.0 19.0 0.00 0.02 0.00 53 1004.7
20260905112427 68 68 11.0 17.0 0.00 0.02 0.00 52 1004.6
20260905111743 69 90 11.0 21.0 0.00 0.02 0.00 51 1004.4
20260905105627 67 68 10.0 17.0 0.00 0.02 0.00 54 1004.3
20260905104947 67 359 0.0 0.0 0.00 0.02 0.00 54 1004.5
20260905104232 68 90 10.0 15.0 0.00 0.02 0.00 54 1004.6
20260905103613 69 68 12.0 19.0 0.00 0.02 0.00 53 1004.4
20260905102129 72 45 12.0 23.0 0.00 0.02 0.00 52 1003.9
20260905101433 71 45 11.0 19.0 0.00 0.02 0.00 54 1003.9
20260905100733 71 23 15.0 22.0 0.00 0.02 0.00 54 1003.9
20260905095333 72 23 13.0 26.0 0.00 0.02 0.00 53 1003.9
20260905094641 71 45 12.0 22.0 0.00 0.02 0.00 55 1003.8
20260905093934 69 23 11.0 21.0 0.00 0.02 0.00 57 1003.8
20260905093230 70 45 12.0 21.0 0.00 0.02 0.00 56 1003.9
20260905092530 72 45 14.0 25.0 0.00 0.02 0.00 55 1003.7
20260905091850 71 45 13.0 25.0 0.00 0.02 0.00 55 1003.6
20260905091134 71 45 13.0 21.0 0.00 0.02 0.00 56 1003.5
20260905090503 70 68 12.0 17.0 0.00 0.02 0.00 57 1003.5
20260905085730 70 45 13.0 21.0 0.00 0.02 0.00 58 1003.4
20260905084335 68 45 13.0 19.0 0.00 0.02 0.00 61 1003.4
20260905083639 69 23 16.0 25.0 0.00 0.02 0.00 60 1003.4
20260905082231 67 45 13.0 22.0 0.00 0.02 0.00 65 1003.4
20260905081531 67 45 14.0 26.0 0.00 0.02 0.00 64 1003.3
20260905080840 67 45 12.0 26.0 0.00 0.02 0.00 66 1003.3
20260905080148 67 23 13.0 22.0 0.00 0.02 0.00 64 1003.4
20260905075517 67 23 12.0 18.0 0.00 0.02 0.00 65 1003.3
20260905074732 67 23 12.0 21.0 0.00 0.02 0.00 67 1003.3
20260905074052 66 45 13.0 21.0 0.00 0.02 0.00 69 1003.1
20260905072656 64 45 12.0 17.0 0.00 0.02 0.00 72 1003.1
20260905072018 64 68 10.0 18.0 0.00 0.02 0.00 73 1003.1
20260905064454 64 45 12.0 24.0 0.00 0.02 0.00 73 1002.5
20260905064057 63 45 9.0 17.0 0.00 0.02 0.00 75 1002.3
20260905063734 63 45 9.0 17.0 0.00 0.02 0.00 75 1002.3
20260905063054 63 45 10.0 17.0 0.00 0.02 0.00 75 1002.3
20260905062334 63 45 9.0 17.0 0.00 0.02 0.00 75 1002.1
20260905061634 62 45 10.0 16.0 0.00 0.02 0.00 74 1001.9
20260905060947 62 68 8.0 16.0 0.00 0.02 0.00 77 1001.9
20260905060235 61 45 9.0 21.0 0.00 0.02 0.00 77 1002.1
20260905055555 61 23 9.0 20.0 0.00 0.02 0.00 78 1002.0
20260905054855 60 45 8.0 16.0 0.00 0.02 0.00 78 1002.0
20260905054135 60 45 6.0 14.0 0.00 0.02 0.00 77 1001.9
20260905053451 61 45 7.0 14.0 0.00 0.02 0.00 76 1001.9
20260905052735 62 23 6.0 13.0 0.00 0.02 0.00 75 1001.9
20260905052040 62 45 5.0 11.0 0.00 0.02 0.00 74 1001.9
20260905051340 62 45 7.0 13.0 0.00 0.02 0.00 75 1001.9
20260905050636 61 45 6.0 13.0 0.00 0.02 0.00 76 1001.8
20260905045936 60 45 7.0 13.0 0.00 0.02 0.00 76 1001.6
20260905045237 60 45 5.0 13.0 0.00 0.02 0.00 76 1001.4
20260905044536 60 45 6.0 13.0 0.00 0.02 0.00 77 1001.4
20260905043837 59 68 6.0 13.0 0.00 0.02 0.00 79 1001.3
20260905043137 59 68 6.0 16.0 0.00 0.02 0.00 78 1001.0
20260905042438 59 68 8.0 16.0 0.00 0.02 0.00 78 1001.1
20260905041741 59 45 8.0 16.0 0.00 0.02 0.00 78 1001.1
20260905041037 60 90 9.0 16.0 0.00 0.02 0.00 78 1000.9
20260905040337 60 45 11.0 22.0 0.00 0.02 0.00 77 1000.7
20260905034950 61 45 9.0 13.0 0.00 0.02 0.00 77 1000.2
20260905034238 61 45 10.0 21.0 0.00 0.02 0.00 78 1000.0
20260905033538 61 23 11.0 17.0 0.00 0.02 0.00 79 999.9
20260905032838 61 45 10.0 23.0 0.00 0.02 0.00 81 999.7
20260905032139 62 23 9.0 18.0 0.00 0.02 0.00 83 999.7
20260905031515 62 23 9.0 18.0 0.00 0.02 0.00 83 999.6
20260905030739 62 45 9.0 16.0 0.00 0.02 0.00 84 999.4
20260905030039 62 45 9.0 17.0 0.00 0.02 0.00 84 999.4
20260905025339 62 45 10.0 18.0 0.00 0.02 0.00 84 999.4
20260905024647 62 23 12.0 21.0 0.00 0.02 0.00 84 999.0
20260905024012 62 45 9.0 19.0 0.00 0.02 0.00 84 999.0
20260905023325 62 23 10.0 19.0 0.00 0.02 0.00 84 999.0
20260905022620 62 23 12.0 19.0 0.00 0.02 0.00 84 999.1
20260905021840 62 23 10.0 18.0 0.00 0.02 0.00 84 999.0
20260905021141 62 23 10.0 18.0 0.00 0.02 0.00 84 999.0
20260905020526 62 359 0.0 0.0 0.00 0.02 0.00 84 999.0
20260905015826 62 23 11.0 20.0 0.00 0.02 0.00 84 998.7
20260905015125 62 23 11.0 21.0 0.00 0.02 0.00 84 998.6
20260905014426 62 359 0.0 0.0 0.00 0.02 0.00 83 998.5
20260905013726 212 359 0.0 0.0 0.00 0.00 0.00 100